Time,TemperatureF,DewpointF,PressureIn,WindDirection,WindDirectionDegrees,WindSpeedMPH,WindSpeedGustMPH,Humidity,HourlyPrecipIn,Conditions,Clouds,dailyrainin,SoftwareType,DateUTC
2013-01-24 00:03:00,47.1,45.7,30.11,NW,323,3.0,5.0,95,0.00,,,0.00,VWS V14.01,2013-01-24 08:03:00,
2013-01-24 00:08:00,47.1,45.7,30.11,NW,323,5.0,9.0,95,0.00,,,0.00,VWS V14.01,2013-01-24 08:08:00,
2013-01-24 00:13:00,47.1,45.7,30.10,NW,323,3.0,10.0,95,0.00,,,0.00,VWS V14.01,2013-01-24 08:13:00,
2013-01-24 00:18:00,47.1,45.7,30.10,NW,323,5.0,10.0,95,0.00,,,0.00,VWS V14.01,2013-01-24 08:18:00,
2013-01-24 00:23:00,47.1,45.7,30.11,NW,323,5.0,10.0,95,0.00,,,0.00,VWS V14.01,2013-01-24 08:23:00,
2013-01-24 00:28:00,47.2,45.8,30.11,NW,323,5.0,10.0,95,0.00,,,0.00,VWS V14.01,2013-01-24 08:28:00,
2013-01-24 00:33:00,47.2,45.8,30.10,NW,323,5.0,10.0,95,0.00,,,0.00,VWS V14.01,2013-01-24 08:33:00,
2013-01-24 00:38:00,47.2,45.8,30.10,NW,323,5.0,10.0,95,0.00,,,0.00,VWS V14.01,2013-01-24 08:38:00,
2013-01-24 00:43:00,47.2,45.8,30.10,NW,323,6.0,10.0,95,0.00,,,0.00,VWS V14.01,2013-01-24 08:43:00,
2013-01-24 00:48:00,47.2,46.1,30.10,NW,323,5.0,10.0,96,0.00,,,0.00,VWS V14.01,2013-01-24 08:48:00,
2013-01-24 00:53:00,47.2,46.1,30.10,NW,323,3.0,11.0,96,0.00,,,0.00,VWS V14.01,2013-01-24 08:53:00,
2013-01-24 00:58:00,47.2,46.1,30.10,NW,321,3.0,13.0,96,0.00,,,0.00,VWS V14.01,2013-01-24 08:58:00,
2013-01-24 01:03:00,47.2,46.1,30.10,NW,321,10.0,10.0,96,0.00,,,0.00,VWS V14.01,2013-01-24 09:03:00,
2013-01-24 01:08:00,47.2,46.1,30.10,NW,323,4.0,13.0,96,0.00,,,0.00,VWS V14.01,2013-01-24 09:08:00,
2013-01-24 01:13:00,47.2,46.1,30.10,NW,323,3.0,13.0,96,0.00,,,0.00,VWS V14.01,2013-01-24 09:13:00,
2013-01-24 01:18:00,47.2,46.1,30.10,NW,323,4.0,13.0,96,0.00,,,0.00,VWS V14.01,2013-01-24 09:18:00,
2013-01-24 01:23:00,47.3,46.2,30.10,NW,320,3.0,13.0,96,0.00,,,0.00,VWS V14.01,2013-01-24 09:23:00,
2013-01-24 01:28:00,47.3,46.2,30.10,NW,321,2.0,13.0,96,0.00,,,0.00,VWS V14.01,2013-01-24 09:28:00,
2013-01-24 01:33:00,47.3,46.2,30.10,NW,321,3.0,13.0,96,0.00,,,0.00,VWS V14.01,2013-01-24 09:33:00,
2013-01-24 01:38:00,47.3,46.2,30.10,NW,323,7.0,13.0,96,0.00,,,0.00,VWS V14.01,2013-01-24 09:38:00,
2013-01-24 01:43:00,47.3,46.2,30.10,NW,323,9.0,13.0,96,0.00,,,0.00,VWS V14.01,2013-01-24 09:43:00,
2013-01-24 01:48:00,47.3,46.2,30.09,NW,322,6.0,13.0,96,0.00,,,0.00,VWS V14.01,2013-01-24 09:48:00,
2013-01-24 01:53:00,47.3,46.2,30.09,NW,323,4.0,13.0,96,0.00,,,0.00,VWS V14.01,2013-01-24 09:53:00,
2013-01-24 01:58:00,47.3,46.2,30.09,NW,323,5.0,13.0,96,0.00,,,0.00,VWS V14.01,2013-01-24 09:58:00,
2013-01-24 02:03:00,47.3,46.2,30.09,NW,323,4.0,7.0,96,0.00,,,0.00,VWS V14.01,2013-01-24 10:03:00,
2013-01-24 02:08:00,47.3,46.2,30.09,NW,323,4.0,11.0,96,0.00,,,0.00,VWS V14.01,2013-01-24 10:08:00,
2013-01-24 02:12:00,47.3,46.2,30.09,NW,323,6.0,11.0,96,0.00,,,0.00,VWS V14.01,2013-01-24 10:12:00,
2013-01-24 02:17:00,47.3,46.2,30.09,NW,323,4.0,11.0,96,0.00,,,0.00,VWS V14.01,2013-01-24 10:17:00,
2013-01-24 02:22:00,47.3,46.2,30.09,NW,323,3.0,11.0,96,0.00,,,0.00,VWS V14.01,2013-01-24 10:22:00,
2013-01-24 02:27:00,47.2,46.1,30.09,NW,323,5.0,11.0,96,0.00,,,0.00,VWS V14.01,2013-01-24 10:27:00,
2013-01-24 02:32:00,47.2,46.1,30.10,NW,323,4.0,11.0,96,0.00,,,0.00,VWS V14.01,2013-01-24 10:32:00,
2013-01-24 02:37:00,47.2,46.1,30.10,NW,322,3.0,11.0,96,0.00,,,0.00,VWS V14.01,2013-01-24 10:37:00,
2013-01-24 02:42:00,47.1,46.0,30.10,NW,323,3.0,11.0,96,0.00,,,0.00,VWS V14.01,2013-01-24 10:42:00,
2013-01-24 02:47:00,47.0,45.9,30.10,NW,323,5.0,11.0,96,0.00,,,0.00,VWS V14.01,2013-01-24 10:47:00,
2013-01-24 02:52:00,47.0,45.9,30.10,NW,323,5.0,11.0,96,0.00,,,0.00,VWS V14.01,2013-01-24 10:52:00,
2013-01-24 02:57:00,47.0,45.9,30.09,NW,323,5.0,11.0,96,0.00,,,0.00,VWS V14.01,2013-01-24 10:57:00,
2013-01-24 03:02:00,47.0,45.9,30.09,NW,323,9.0,10.0,96,0.00,,,0.00,VWS V14.01,2013-01-24 11:02:00,
2013-01-24 03:07:00,47.0,45.9,30.09,NW,323,5.0,10.0,96,0.00,,,0.00,VWS V14.01,2013-01-24 11:07:00,
2013-01-24 03:12:00,47.0,45.9,30.09,NW,321,4.0,12.0,96,0.00,,,0.00,VWS V14.01,2013-01-24 11:12:00,
2013-01-24 03:17:00,47.0,45.9,30.09,NW,321,3.0,12.0,96,0.00,,,0.00,VWS V14.01,2013-01-24 11:17:00,
2013-01-24 03:22:00,47.0,45.9,30.09,NW,321,10.0,12.0,96,0.00,,,0.00,VWS V14.01,2013-01-24 11:22:00,
2013-01-24 03:27:00,47.0,45.9,30.09,NW,322,3.0,12.0,96,0.00,,,0.00,VWS V14.01,2013-01-24 11:27:00,
2013-01-24 03:32:00,47.0,45.9,30.09,NW,322,5.0,12.0,96,0.00,,,0.00,VWS V14.01,2013-01-24 11:32:00,
2013-01-24 03:37:00,47.0,45.9,30.09,NW,323,3.0,12.0,96,0.00,,,0.00,VWS V14.01,2013-01-24 11:37:00,
2013-01-24 03:42:00,47.1,46.0,30.09,NW,323,1.0,12.0,96,0.00,,,0.00,VWS V14.01,2013-01-24 11:42:00,
2013-01-24 03:47:00,47.1,46.0,30.09,NW,323,0.0,12.0,96,0.00,,,0.00,VWS V14.01,2013-01-24 11:47:00,
2013-01-24 03:52:00,47.1,46.0,30.09,NW,323,2.0,12.0,96,0.00,,,0.00,VWS V14.01,2013-01-24 11:52:00,
2013-01-24 03:57:00,47.1,46.0,30.09,NW,323,6.0,12.0,96,0.00,,,0.00,VWS V14.01,2013-01-24 11:57:00,
2013-01-24 04:02:00,47.1,46.0,30.09,NW,323,2.0,3.0,96,0.00,,,0.00,VWS V14.01,2013-01-24 12:02:00,
2013-01-24 04:07:00,47.1,46.0,30.09,NW,323,2.0,7.0,96,0.00,,,0.00,VWS V14.01,2013-01-24 12:07:00,
2013-01-24 04:12:00,47.1,46.0,30.09,NW,323,3.0,10.0,96,0.00,,,0.00,VWS V14.01,2013-01-24 12:12:00,
2013-01-24 04:17:00,47.2,46.1,30.09,NW,323,5.0,10.0,96,0.00,,,0.00,VWS V14.01,2013-01-24 12:17:00,
2013-01-24 04:22:00,47.2,46.1,30.10,NW,323,6.0,10.0,96,0.00,,,0.00,VWS V14.01,2013-01-24 12:22:00,
2013-01-24 04:27:00,47.2,46.1,30.10,NW,323,10.0,10.0,96,0.00,,,0.00,VWS V14.01,2013-01-24 12:27:00,
2013-01-24 04:32:00,47.2,46.1,30.10,NW,323,2.0,10.0,96,0.00,,,0.00,VWS V14.01,2013-01-24 12:32:00,
2013-01-24 04:37:00,47.2,46.1,30.10,NW,323,3.0,10.0,96,0.00,,,0.00,VWS V14.01,2013-01-24 12:37:00,
2013-01-24 04:42:00,47.2,46.1,30.10,NW,323,4.0,10.0,96,0.00,,,0.00,VWS V14.01,2013-01-24 12:42:00,
2013-01-24 04:47:00,47.2,46.1,30.10,NW,323,2.0,11.0,96,0.00,,,0.00,VWS V14.01,2013-01-24 12:47:00,
2013-01-24 04:52:00,47.2,46.1,30.09,NW,323,2.0,11.0,96,0.00,,,0.00,VWS V14.01,2013-01-24 12:52:00,
2013-01-24 04:57:00,47.2,46.1,30.09,NW,323,6.0,11.0,96,0.00,,,0.00,VWS V14.01,2013-01-24 12:57:00,
2013-01-24 05:02:00,47.3,46.2,30.10,NW,323,2.0,11.0,96,0.00,,,0.00,VWS V14.01,2013-01-24 13:02:00,
2013-01-24 05:07:00,47.3,46.2,30.10,NW,323,0.0,4.0,96,0.00,,,0.00,VWS V14.01,2013-01-24 13:07:00,
2013-01-24 05:12:00,47.3,46.2,30.10,NW,323,0.0,4.0,96,0.00,,,0.00,VWS V14.01,2013-01-24 13:12:00,
2013-01-24 05:17:00,47.3,46.2,30.10,NW,323,3.0,5.0,96,0.00,,,0.00,VWS V14.01,2013-01-24 13:17:00,
2013-01-24 05:22:00,47.3,46.2,30.11,NW,323,0.0,5.0,96,0.00,,,0.00,VWS V14.01,2013-01-24 13:22:00,
2013-01-24 05:27:00,47.3,46.2,30.11,NW,323,0.0,5.0,96,0.00,,,0.00,VWS V14.01,2013-01-24 13:27:00,
2013-01-24 05:32:00,47.4,46.3,30.11,NW,323,1.0,6.0,96,0.00,,,0.00,VWS V14.01,2013-01-24 13:32:00,
2013-01-24 05:37:00,47.4,46.3,30.11,NW,323,4.0,6.0,96,0.00,,,0.00,VWS V14.01,2013-01-24 13:37:00,
2013-01-24 05:42:00,47.4,46.3,30.11,NW,323,2.0,7.0,96,0.00,,,0.00,VWS V14.01,2013-01-24 13:42:00,
2013-01-24 05:47:00,47.5,46.4,30.11,NW,323,3.0,7.0,96,0.00,,,0.00,VWS V14.01,2013-01-24 13:47:00,
2013-01-24 05:52:00,47.5,46.4,30.11,NW,323,1.0,7.0,96,0.00,,,0.00,VWS V14.01,2013-01-24 13:52:00,
2013-01-24 05:57:00,47.5,46.4,30.11,NW,323,0.0,7.0,96,0.00,,,0.00,VWS V14.01,2013-01-24 13:57:00,
2013-01-24 06:02:00,47.5,46.4,30.11,NW,323,0.0,7.0,96,0.00,,,0.00,VWS V14.01,2013-01-24 14:02:00,
2013-01-24 06:07:00,47.5,46.4,30.11,NW,323,0.0,0.0,96,0.00,,,0.00,VWS V14.01,2013-01-24 14:07:00,
2013-01-24 06:12:00,47.5,46.4,30.11,NW,323,0.0,0.0,96,0.00,,,0.00,VWS V14.01,2013-01-24 14:12:00,
2013-01-24 06:17:00,47.5,46.4,30.11,NW,323,0.0,0.0,96,0.00,,,0.00,VWS V14.01,2013-01-24 14:17:00,
2013-01-24 06:22:00,47.5,46.4,30.12,NW,323,0.0,0.0,96,0.00,,,0.00,VWS V14.01,2013-01-24 14:22:00,
2013-01-24 06:27:00,47.5,46.4,30.12,NW,323,0.0,0.0,96,0.00,,,0.00,VWS V14.01,2013-01-24 14:27:00,
2013-01-24 06:32:00,47.5,46.4,30.12,NW,323,0.0,0.0,96,0.00,,,0.00,VWS V14.01,2013-01-24 14:32:00,
2013-01-24 06:37:00,47.5,46.4,30.12,NW,323,0.0,0.0,96,0.00,,,0.00,VWS V14.01,2013-01-24 14:37:00,
2013-01-24 06:42:00,47.5,46.4,30.12,NW,323,0.0,0.0,96,0.00,,,0.00,VWS V14.01,2013-01-24 14:42:00,
2013-01-24 06:47:00,47.5,46.4,30.12,NW,323,0.0,0.0,96,0.00,,,0.00,VWS V14.01,2013-01-24 14:47:00,
2013-01-24 06:52:00,47.5,46.4,30.12,NW,323,0.0,0.0,96,0.00,,,0.00,VWS V14.01,2013-01-24 14:52:00,
2013-01-24 06:57:00,47.5,46.4,30.13,NW,323,0.0,0.0,96,0.00,,,0.00,VWS V14.01,2013-01-24 14:57:00,
2013-01-24 07:02:00,47.5,46.4,30.12,NW,323,0.0,0.0,96,0.00,,,0.00,VWS V14.01,2013-01-24 15:02:00,
2013-01-24 07:07:00,47.5,46.4,30.13,NW,323,0.0,0.0,96,0.00,,,0.00,VWS V14.01,2013-01-24 15:07:00,
2013-01-24 07:12:00,47.5,46.4,30.13,NW,323,0.0,0.0,96,0.00,,,0.00,VWS V14.01,2013-01-24 15:12:00,
2013-01-24 07:17:00,47.5,46.4,30.12,NW,323,0.0,0.0,96,0.00,,,0.00,VWS V14.01,2013-01-24 15:17:00,
2013-01-24 07:22:00,47.5,46.4,30.12,NW,323,0.0,0.0,96,0.00,,,0.00,VWS V14.01,2013-01-24 15:22:00,
2013-01-24 07:27:00,47.5,46.4,30.13,NW,323,0.0,0.0,96,0.00,,,0.00,VWS V14.01,2013-01-24 15:27:00,
2013-01-24 07:32:00,47.5,46.4,30.12,NW,323,0.0,0.0,96,0.00,,,0.00,VWS V14.01,2013-01-24 15:32:00,
2013-01-24 07:37:00,47.5,46.4,30.12,NW,323,0.0,0.0,96,0.00,,,0.00,VWS V14.01,2013-01-24 15:37:00,
2013-01-24 07:42:00,47.5,46.4,30.12,NW,323,0.0,0.0,96,0.00,,,0.00,VWS V14.01,2013-01-24 15:42:00,
2013-01-24 07:47:00,47.5,46.4,30.13,NW,323,0.0,0.0,96,0.00,,,0.00,VWS V14.01,2013-01-24 15:47:00,
2013-01-24 07:52:00,47.5,46.4,30.13,NW,323,0.0,0.0,96,0.00,,,0.00,VWS V14.01,2013-01-24 15:52:00,
2013-01-24 07:57:00,47.5,46.4,30.12,NW,323,0.0,0.0,96,0.00,,,0.00,VWS V14.01,2013-01-24 15:57:00,
2013-01-24 08:02:00,47.5,46.4,30.12,NW,323,0.0,0.0,96,0.00,,,0.00,VWS V14.01,2013-01-24 16:02:00,
2013-01-24 08:07:00,47.5,46.4,30.12,NW,323,0.0,0.0,96,0.00,,,0.00,VWS V14.01,2013-01-24 16:07:00,
2013-01-24 08:12:00,47.5,46.4,30.12,NW,323,0.0,0.0,96,0.00,,,0.00,VWS V14.01,2013-01-24 16:12:00,
2013-01-24 08:17:00,47.5,46.4,30.13,NW,323,0.0,0.0,96,0.00,,,0.00,VWS V14.01,2013-01-24 16:17:00,
2013-01-24 08:22:00,48.2,47.1,30.13,NW,323,0.0,0.0,96,0.00,,,0.00,VWS V14.01,2013-01-24 16:22:00,
2013-01-24 08:27:00,48.3,47.2,30.13,NW,323,0.0,4.0,96,0.00,,,0.00,VWS V14.01,2013-01-24 16:27:00,
2013-01-24 08:32:00,48.5,47.4,30.13,NW,324,0.0,8.0,96,0.00,,,0.00,VWS V14.01,2013-01-24 16:32:00,
2013-01-24 08:36:00,48.6,47.5,30.13,NW,324,0.0,8.0,96,0.00,,,0.00,VWS V14.01,2013-01-24 16:36:00,
2013-01-24 08:41:00,48.9,47.8,30.13,NW,324,3.0,8.0,96,0.00,,,0.00,VWS V14.01,2013-01-24 16:41:00,
2013-01-24 08:46:00,49.0,47.9,30.13,NW,325,2.0,8.0,96,0.00,,,0.00,VWS V14.01,2013-01-24 16:46:00,
2013-01-24 08:51:00,49.2,48.1,30.14,NW,325,0.0,8.0,96,0.00,,,0.00,VWS V14.01,2013-01-24 16:51:00,
2013-01-24 08:56:00,49.3,48.2,30.14,NW,325,6.0,10.0,96,0.00,,,0.00,VWS V14.01,2013-01-24 16:56:00,
2013-01-24 09:01:00,49.4,48.3,30.14,NW,325,3.0,10.0,96,0.00,,,0.00,VWS V14.01,2013-01-24 17:01:00,
2013-01-24 09:06:00,49.5,48.1,30.14,NW,325,0.0,6.0,95,0.00,,,0.00,VWS V14.01,2013-01-24 17:06:00,
2013-01-24 09:11:00,49.6,48.2,30.14,NW,325,2.0,7.0,95,0.00,,,0.00,VWS V14.01,2013-01-24 17:11:00,
2013-01-24 09:16:00,49.7,48.6,30.15,NW,325,0.0,7.0,96,0.00,,,0.00,VWS V14.01,2013-01-24 17:16:00,
2013-01-24 09:21:00,49.8,48.4,30.15,NW,325,7.0,9.0,95,0.00,,,0.00,VWS V14.01,2013-01-24 17:21:00,
2013-01-24 09:26:00,49.9,48.5,30.15,NW,325,2.0,9.0,95,0.00,,,0.00,VWS V14.01,2013-01-24 17:26:00,
2013-01-24 09:31:00,50.0,48.6,30.15,NW,325,2.0,9.0,95,0.00,,,0.00,VWS V14.01,2013-01-24 17:31:00,
2013-01-24 09:36:00,50.1,48.7,30.16,NW,325,4.0,9.0,95,0.00,,,0.00,VWS V14.01,2013-01-24 17:36:00,
2013-01-24 09:41:00,50.3,48.9,30.16,NW,325,0.0,9.0,95,0.00,,,0.00,VWS V14.01,2013-01-24 17:41:00,
2013-01-24 09:46:00,50.4,49.0,30.16,NW,325,2.0,9.0,95,0.00,,,0.00,VWS V14.01,2013-01-24 17:46:00,
2013-01-24 09:51:00,50.5,49.1,30.16,NW,325,4.0,9.0,95,0.00,,,0.00,VWS V14.01,2013-01-24 17:51:00,
2013-01-24 09:56:00,50.5,49.1,30.17,NW,325,0.0,9.0,95,0.00,,,0.00,VWS V14.01,2013-01-24 17:56:00,
2013-01-24 10:01:00,50.6,49.2,30.17,NW,325,4.0,9.0,95,0.00,,,0.00,VWS V14.01,2013-01-24 18:01:00,
2013-01-24 10:06:00,50.7,49.0,30.17,NW,325,0.0,5.0,94,0.00,,,0.00,VWS V14.01,2013-01-24 18:06:00,
2013-01-24 10:11:00,50.8,49.1,30.17,NW,325,0.0,6.0,94,0.00,,,0.00,VWS V14.01,2013-01-24 18:11:00,
2013-01-24 10:16:00,50.9,49.2,30.17,NW,325,0.0,6.0,94,0.00,,,0.00,VWS V14.01,2013-01-24 18:16:00,
2013-01-24 10:21:00,51.1,49.4,30.17,NW,325,0.0,6.0,94,0.00,,,0.00,VWS V14.01,2013-01-24 18:21:00,
2013-01-24 10:26:00,51.2,49.5,30.17,NW,325,0.0,6.0,94,0.00,,,0.00,VWS V14.01,2013-01-24 18:26:00,
2013-01-24 10:31:00,51.4,49.7,30.18,NW,325,0.0,6.0,94,0.00,,,0.00,VWS V14.01,2013-01-24 18:31:00,
2013-01-24 10:36:00,51.5,49.8,30.18,NW,325,0.0,6.0,94,0.00,,,0.00,VWS V14.01,2013-01-24 18:36:00,
2013-01-24 10:41:00,51.7,50.0,30.18,NW,325,0.0,6.0,94,0.00,,,0.00,VWS V14.01,2013-01-24 18:41:00,
2013-01-24 10:46:00,51.9,49.9,30.18,NW,325,0.0,6.0,93,0.00,,,0.00,VWS V14.01,2013-01-24 18:46:00,
2013-01-24 10:51:00,52.1,50.1,30.18,NW,325,2.0,6.0,93,0.00,,,0.00,VWS V14.01,2013-01-24 18:51:00,
2013-01-24 10:56:00,52.2,50.2,30.18,NW,325,0.0,6.0,93,0.00,,,0.00,VWS V14.01,2013-01-24 18:56:00,
2013-01-24 11:01:00,52.4,50.4,30.18,NW,325,0.0,6.0,93,0.00,,,0.00,VWS V14.01,2013-01-24 19:01:00,
2013-01-24 11:06:00,52.6,50.3,30.18,NW,325,0.0,4.0,92,0.00,,,0.00,VWS V14.01,2013-01-24 19:06:00,
2013-01-24 11:11:00,52.8,50.5,30.18,NW,325,0.0,4.0,92,0.00,,,0.00,VWS V14.01,2013-01-24 19:11:00,
2013-01-24 11:16:00,53.0,50.7,30.17,NW,325,0.0,4.0,92,0.00,,,0.00,VWS V14.01,2013-01-24 19:16:00,
2013-01-24 11:21:00,53.1,50.5,30.17,NW,325,0.0,4.0,91,0.00,,,0.00,VWS V14.01,2013-01-24 19:21:00,
2013-01-24 11:26:00,53.1,50.5,30.17,NW,325,0.0,4.0,91,0.00,,,0.00,VWS V14.01,2013-01-24 19:26:00,
2013-01-24 11:31:00,53.2,50.3,30.17,NW,325,3.0,6.0,90,0.00,,,0.00,VWS V14.01,2013-01-24 19:31:00,
2013-01-24 11:36:00,53.3,50.5,30.17,NW,325,2.0,6.0,90,0.00,,,0.00,VWS V14.01,2013-01-24 19:36:00,
2013-01-24 11:41:00,53.3,50.2,30.16,NW,325,0.0,7.0,89,0.00,,,0.00,VWS V14.01,2013-01-24 19:41:00,
2013-01-24 11:46:00,53.4,50.2,30.16,NW,325,0.0,7.0,89,0.00,,,0.00,VWS V14.01,2013-01-24 19:46:00,
2013-01-24 11:51:00,53.4,50.2,30.17,NW,325,0.0,7.0,89,0.00,,,0.00,VWS V14.01,2013-01-24 19:51:00,
2013-01-24 11:56:00,53.6,50.4,30.17,NW,325,0.0,7.0,89,0.00,,,0.00,VWS V14.01,2013-01-24 19:56:00,
2013-01-24 12:01:00,53.7,50.2,30.17,NW,325,0.0,7.0,88,0.00,,,0.00,VWS V14.01,2013-01-24 20:01:00,
2013-01-24 12:06:00,53.8,50.3,30.17,NW,325,0.0,0.0,88,0.00,,,0.00,VWS V14.01,2013-01-24 20:06:00,
2013-01-24 12:11:00,53.9,50.4,30.17,NW,325,0.0,0.0,88,0.00,,,0.00,VWS V14.01,2013-01-24 20:11:00,
2013-01-24 12:16:00,54.1,50.6,30.16,NW,325,0.0,0.0,88,0.00,,,0.00,VWS V14.01,2013-01-24 20:16:00,
2013-01-24 12:21:00,54.2,50.7,30.16,NW,325,0.0,0.0,88,0.00,,,0.00,VWS V14.01,2013-01-24 20:21:00,
2013-01-24 12:26:00,54.2,50.4,30.16,NW,325,0.0,0.0,87,0.00,,,0.00,VWS V14.01,2013-01-24 20:26:00,
2013-01-24 12:31:00,54.4,50.6,30.16,NW,325,0.0,0.0,87,0.00,,,0.00,VWS V14.01,2013-01-24 20:31:00,
2013-01-24 12:36:00,54.6,50.8,30.16,NW,325,0.0,0.0,87,0.00,,,0.00,VWS V14.01,2013-01-24 20:36:00,
2013-01-24 12:41:00,54.8,51.0,30.16,NW,325,0.0,0.0,87,0.00,,,0.00,VWS V14.01,2013-01-24 20:41:00,
2013-01-24 12:46:00,54.9,51.1,30.16,NW,325,0.0,0.0,87,0.00,,,0.00,VWS V14.01,2013-01-24 20:46:00,
2013-01-24 12:51:00,55.0,50.9,30.16,NW,325,0.0,0.0,86,0.00,,,0.00,VWS V14.01,2013-01-24 20:51:00,
2013-01-24 12:56:00,55.1,51.0,30.16,NW,325,0.0,0.0,86,0.00,,,0.00,VWS V14.01,2013-01-24 20:56:00,
2013-01-24 13:01:00,55.4,51.3,30.15,NW,325,0.0,1.0,86,0.00,,,0.00,VWS V14.01,2013-01-24 21:01:00,
2013-01-24 13:06:00,55.5,51.4,30.15,NW,325,0.0,0.0,86,0.00,,,0.00,VWS V14.01,2013-01-24 21:06:00,
2013-01-24 13:11:00,55.6,51.2,30.15,NW,325,0.0,0.0,85,0.00,,,0.00,VWS V14.01,2013-01-24 21:11:00,
2013-01-24 13:16:00,55.7,51.3,30.15,NW,325,0.0,0.0,85,0.00,,,0.00,VWS V14.01,2013-01-24 21:16:00,
2013-01-24 13:21:00,55.9,51.5,30.15,NW,325,0.0,0.0,85,0.00,,,0.00,VWS V14.01,2013-01-24 21:21:00,
2013-01-24 13:26:00,55.9,51.5,30.15,NW,325,0.0,1.0,85,0.00,,,0.00,VWS V14.01,2013-01-24 21:26:00,
2013-01-24 13:31:00,56.0,51.6,30.15,NW,325,0.0,1.0,85,0.00,,,0.00,VWS V14.01,2013-01-24 21:31:00,
2013-01-24 13:36:00,56.1,51.3,30.16,NW,325,0.0,1.0,84,0.00,,,0.00,VWS V14.01,2013-01-24 21:36:00,
2013-01-24 13:41:00,56.0,51.2,30.15,NW,325,0.0,1.0,84,0.00,,,0.00,VWS V14.01,2013-01-24 21:41:00,
2013-01-24 13:46:00,56.2,51.8,30.15,NW,325,0.0,1.0,85,0.00,,,0.00,VWS V14.01,2013-01-24 21:46:00,
2013-01-24 13:51:00,56.4,52.0,30.15,NW,325,0.0,1.0,85,0.00,,,0.00,VWS V14.01,2013-01-24 21:51:00,
2013-01-24 13:56:00,56.4,51.6,30.15,NW,325,0.0,1.0,84,0.00,,,0.00,VWS V14.01,2013-01-24 21:56:00,
2013-01-24 14:01:00,56.4,51.6,30.15,NW,325,0.0,1.0,84,0.00,,,0.00,VWS V14.01,2013-01-24 22:01:00,
2013-01-24 14:06:00,56.3,51.5,30.15,NW,325,0.0,0.0,84,0.00,,,0.00,VWS V14.01,2013-01-24 22:06:00,
2013-01-24 14:11:00,56.2,51.8,30.15,NW,325,0.0,0.0,85,0.00,,,0.00,VWS V14.01,2013-01-24 22:11:00,
2013-01-24 14:16:00,56.3,51.9,30.15,NW,325,0.0,1.0,85,0.00,,,0.00,VWS V14.01,2013-01-24 22:16:00,
2013-01-24 14:21:00,56.2,51.8,30.14,NW,325,0.0,1.0,85,0.01,,,0.01,VWS V14.01,2013-01-24 22:21:00,
2013-01-24 14:26:00,56.2,52.1,30.14,NW,325,0.0,1.0,86,0.01,,,0.01,VWS V14.01,2013-01-24 22:26:00,
2013-01-24 14:30:00,56.0,52.2,30.15,NW,325,1.0,2.0,87,0.01,,,0.01,VWS V14.01,2013-01-24 22:30:00,
2013-01-24 14:35:00,55.9,52.1,30.15,NW,325,0.0,2.0,87,0.02,,,0.02,VWS V14.01,2013-01-24 22:35:00,
2013-01-24 14:40:00,55.8,52.3,30.15,NW,325,0.0,2.0,88,0.02,,,0.02,VWS V14.01,2013-01-24 22:40:00,
2013-01-24 14:45:00,55.8,52.3,30.15,NW,325,0.0,2.0,88,0.03,,,0.03,VWS V14.01,2013-01-24 22:45:00,
2013-01-24 14:50:00,55.8,52.6,30.15,NW,325,4.0,4.0,89,0.03,,,0.03,VWS V14.01,2013-01-24 22:50:00,
2013-01-24 14:55:00,55.8,52.6,30.15,NW,325,6.0,6.0,89,0.03,,,0.03,VWS V14.01,2013-01-24 22:55:00,
2013-01-24 15:00:00,55.7,52.8,30.15,NW,325,0.0,6.0,90,0.03,,,0.03,VWS V14.01,2013-01-24 23:00:00,
2013-01-24 15:05:00,55.7,52.8,30.15,NW,325,0.0,0.0,90,0.03,,,0.03,VWS V14.01,2013-01-24 23:05:00,
2013-01-24 15:10:00,55.5,52.6,30.15,NW,325,0.0,4.0,90,0.03,,,0.03,VWS V14.01,2013-01-24 23:10:00,
2013-01-24 15:15:00,55.4,52.5,30.15,NW,325,0.0,4.0,90,0.04,,,0.04,VWS V14.01,2013-01-24 23:15:00,
2013-01-24 15:20:00,55.5,52.9,30.15,NW,325,0.0,4.0,91,0.04,,,0.04,VWS V14.01,2013-01-24 23:20:00,
2013-01-24 15:25:00,55.4,52.8,30.15,NW,325,0.0,4.0,91,0.04,,,0.04,VWS V14.01,2013-01-24 23:25:00,
2013-01-24 15:30:00,55.2,52.6,30.15,NW,325,0.0,4.0,91,0.04,,,0.04,VWS V14.01,2013-01-24 23:30:00,
2013-01-24 15:35:00,55.1,52.5,30.15,NW,325,0.0,4.0,91,0.04,,,0.04,VWS V14.01,2013-01-24 23:35:00,
2013-01-24 15:40:00,55.1,52.5,30.15,NW,325,0.0,4.0,91,0.04,,,0.04,VWS V14.01,2013-01-24 23:40:00,
2013-01-24 15:45:00,55.1,52.5,30.15,NW,325,0.0,4.0,91,0.04,,,0.04,VWS V14.01,2013-01-24 23:45:00,
2013-01-24 15:50:00,55.1,52.5,30.15,NW,325,0.0,4.0,91,0.05,,,0.05,VWS V14.01,2013-01-24 23:50:00,
2013-01-24 15:55:00,55.1,52.5,30.15,NW,325,0.0,4.0,91,0.05,,,0.05,VWS V14.01,2013-01-24 23:55:00,
2013-01-24 16:00:00,55.1,52.5,30.15,NW,325,0.0,4.0,91,0.05,,,0.05,VWS V14.01,2013-01-25 00:00:00,
2013-01-24 16:05:00,55.1,52.5,30.15,NW,325,0.0,0.0,91,0.02,,,0.05,VWS V14.01,2013-01-25 00:05:00,
2013-01-24 16:10:00,55.1,52.5,30.16,NW,325,0.0,0.0,91,0.02,,,0.05,VWS V14.01,2013-01-25 00:10:00,
2013-01-24 16:15:00,55.0,52.4,30.16,NW,325,0.0,0.0,91,0.02,,,0.05,VWS V14.01,2013-01-25 00:15:00,
2013-01-24 16:20:00,55.0,52.4,30.16,NW,325,0.0,0.0,91,0.02,,,0.05,VWS V14.01,2013-01-25 00:20:00,
2013-01-24 16:25:00,55.0,52.4,30.16,NW,325,0.0,0.0,91,0.02,,,0.05,VWS V14.01,2013-01-25 00:25:00,
2013-01-24 16:30:00,55.1,52.5,30.16,NW,325,0.0,0.0,91,0.02,,,0.05,VWS V14.01,2013-01-25 00:30:00,
2013-01-24 16:35:00,55.1,52.5,30.16,NW,325,0.0,0.0,91,0.02,,,0.05,VWS V14.01,2013-01-25 00:35:00,
2013-01-24 16:40:00,55.0,52.4,30.16,NW,325,0.0,0.0,91,0.02,,,0.05,VWS V14.01,2013-01-25 00:40:00,
2013-01-24 16:45:00,55.0,52.4,30.16,NW,325,0.0,1.0,91,0.02,,,0.05,VWS V14.01,2013-01-25 00:45:00,
2013-01-24 16:50:00,54.9,52.3,30.16,NW,325,0.0,1.0,91,0.02,,,0.05,VWS V14.01,2013-01-25 00:50:00,
2013-01-24 16:55:00,54.9,52.3,30.16,NW,325,0.0,1.0,91,0.02,,,0.05,VWS V14.01,2013-01-25 00:55:00,
2013-01-24 17:00:00,54.7,52.1,30.16,NW,325,0.0,1.0,91,0.02,,,0.05,VWS V14.01,2013-01-25 01:00:00,
2013-01-24 17:05:00,54.6,52.0,30.16,NW,325,0.0,0.0,91,0.00,,,0.05,VWS V14.01,2013-01-25 01:05:00,
2013-01-24 17:10:00,54.6,52.0,30.16,NW,325,0.0,0.0,91,0.00,,,0.05,VWS V14.01,2013-01-25 01:10:00,
2013-01-24 17:15:00,54.5,51.9,30.16,NW,325,0.0,1.0,91,0.00,,,0.05,VWS V14.01,2013-01-25 01:15:00,
2013-01-24 17:20:00,54.5,51.9,30.16,NW,325,0.0,4.0,91,0.00,,,0.05,VWS V14.01,2013-01-25 01:20:00,
2013-01-24 17:25:00,54.4,52.1,30.16,NW,325,0.0,4.0,92,0.00,,,0.05,VWS V14.01,2013-01-25 01:25:00,
2013-01-24 17:30:00,54.4,52.1,30.16,NW,325,0.0,4.0,92,0.00,,,0.05,VWS V14.01,2013-01-25 01:30:00,
2013-01-24 17:35:00,54.4,52.1,30.16,NW,325,0.0,4.0,92,0.00,,,0.05,VWS V14.01,2013-01-25 01:35:00,
2013-01-24 17:40:00,54.4,52.1,30.16,NW,325,0.0,4.0,92,0.00,,,0.05,VWS V14.01,2013-01-25 01:40:00,
2013-01-24 17:45:00,54.3,52.0,30.16,NW,325,0.0,4.0,92,0.00,,,0.05,VWS V14.01,2013-01-25 01:45:00,
2013-01-24 17:50:00,54.3,52.0,30.16,NW,325,0.0,4.0,92,0.00,,,0.05,VWS V14.01,2013-01-25 01:50:00,
2013-01-24 17:55:00,54.3,52.0,30.17,NW,325,0.0,4.0,92,0.00,,,0.05,VWS V14.01,2013-01-25 01:55:00,
2013-01-24 18:00:00,54.2,51.9,30.17,NW,325,0.0,4.0,92,0.00,,,0.05,VWS V14.01,2013-01-25 02:00:00,
2013-01-24 18:05:00,54.2,51.9,30.17,NW,325,0.0,0.0,92,0.00,,,0.05,VWS V14.01,2013-01-25 02:05:00,
2013-01-24 18:10:00,54.2,51.9,30.17,NW,325,0.0,0.0,92,0.00,,,0.05,VWS V14.01,2013-01-25 02:10:00,
2013-01-24 18:15:00,54.2,52.2,30.17,NW,325,0.0,0.0,93,0.00,,,0.05,VWS V14.01,2013-01-25 02:15:00,
2013-01-24 18:20:00,54.1,52.1,30.17,NW,325,0.0,0.0,93,0.00,,,0.05,VWS V14.01,2013-01-25 02:20:00,
2013-01-24 18:25:00,54.1,52.1,30.17,NW,325,0.0,0.0,93,0.00,,,0.05,VWS V14.01,2013-01-25 02:25:00,
2013-01-24 18:30:00,54.1,52.1,30.17,NW,325,0.0,0.0,93,0.00,,,0.05,VWS V14.01,2013-01-25 02:30:00,
2013-01-24 18:35:00,54.1,52.1,30.17,NW,325,0.0,0.0,93,0.00,,,0.05,VWS V14.01,2013-01-25 02:35:00,
2013-01-24 18:40:00,54.1,52.1,30.18,NW,325,0.0,1.0,93,0.00,,,0.05,VWS V14.01,2013-01-25 02:40:00,
2013-01-24 18:45:00,54.0,52.0,30.18,NW,325,0.0,1.0,93,0.00,,,0.05,VWS V14.01,2013-01-25 02:45:00,
2013-01-24 18:50:00,54.0,52.0,30.18,NW,325,0.0,1.0,93,0.00,,,0.05,VWS V14.01,2013-01-25 02:50:00,
2013-01-24 18:55:00,53.9,51.9,30.18,NW,325,0.0,1.0,93,0.00,,,0.05,VWS V14.01,2013-01-25 02:55:00,
2013-01-24 19:00:00,53.9,51.9,30.18,NW,325,0.0,1.0,93,0.00,,,0.05,VWS V14.01,2013-01-25 03:00:00,
2013-01-24 19:05:00,53.9,51.9,30.18,NW,325,0.0,0.0,93,0.00,,,0.05,VWS V14.01,2013-01-25 03:05:00,
2013-01-24 19:10:00,53.9,51.9,30.18,NW,325,0.0,0.0,93,0.00,,,0.05,VWS V14.01,2013-01-25 03:10:00,
2013-01-24 19:15:00,53.8,51.8,30.18,NW,325,0.0,0.0,93,0.00,,,0.05,VWS V14.01,2013-01-25 03:15:00,
2013-01-24 19:20:00,53.8,51.8,30.18,NW,325,0.0,0.0,93,0.00,,,0.05,VWS V14.01,2013-01-25 03:20:00,
2013-01-24 19:25:00,53.8,51.8,30.18,NW,325,0.0,0.0,93,0.00,,,0.05,VWS V14.01,2013-01-25 03:25:00,
2013-01-24 19:30:00,53.8,51.8,30.18,NW,325,0.0,0.0,93,0.01,,,0.06,VWS V14.01,2013-01-25 03:30:00,
2013-01-24 19:35:00,53.8,51.8,30.18,NW,325,0.0,0.0,93,0.01,,,0.06,VWS V14.01,2013-01-25 03:35:00,
2013-01-24 19:40:00,53.8,51.8,30.18,NW,325,0.0,0.0,93,0.01,,,0.06,VWS V14.01,2013-01-25 03:40:00,
2013-01-24 19:45:00,53.8,51.8,30.18,NW,325,0.0,0.0,93,0.01,,,0.06,VWS V14.01,2013-01-25 03:45:00,
2013-01-24 19:50:00,53.8,52.1,30.18,NW,325,0.0,0.0,94,0.01,,,0.06,VWS V14.01,2013-01-25 03:50:00,
2013-01-24 19:55:00,53.8,52.1,30.18,NW,325,0.0,0.0,94,0.01,,,0.06,VWS V14.01,2013-01-25 03:55:00,
2013-01-24 20:00:00,53.8,52.1,30.18,NW,325,0.0,0.0,94,0.01,,,0.06,VWS V14.01,2013-01-25 04:00:00,
2013-01-24 20:05:00,53.7,52.0,30.18,NW,325,0.0,0.0,94,0.01,,,0.06,VWS V14.01,2013-01-25 04:05:00,
2013-01-24 20:10:00,53.7,52.0,30.18,NW,325,0.0,0.0,94,0.01,,,0.06,VWS V14.01,2013-01-25 04:10:00,
2013-01-24 20:15:00,53.7,52.0,30.19,NW,325,0.0,0.0,94,0.01,,,0.06,VWS V14.01,2013-01-25 04:15:00,
2013-01-24 20:20:00,53.7,52.0,30.19,NW,325,0.0,0.0,94,0.01,,,0.06,VWS V14.01,2013-01-25 04:20:00,
2013-01-24 20:25:00,53.6,51.9,30.19,NW,325,0.0,0.0,94,0.01,,,0.06,VWS V14.01,2013-01-25 04:25:00,
2013-01-24 20:30:00,53.6,51.9,30.19,NW,325,0.0,0.0,94,0.01,,,0.06,VWS V14.01,2013-01-25 04:30:00,
2013-01-24 20:35:00,53.6,51.9,30.19,NW,325,0.0,0.0,94,0.01,,,0.06,VWS V14.01,2013-01-25 04:35:00,
2013-01-24 20:39:00,53.5,51.8,30.19,NW,325,0.0,0.0,94,0.01,,,0.06,VWS V14.01,2013-01-25 04:39:00,
2013-01-24 20:44:00,53.5,51.8,30.19,NW,325,0.0,0.0,94,0.01,,,0.06,VWS V14.01,2013-01-25 04:44:00,
2013-01-24 20:49:00,53.5,51.8,30.19,NW,325,0.0,0.0,94,0.01,,,0.06,VWS V14.01,2013-01-25 04:49:00,
2013-01-24 20:54:00,53.5,51.8,30.19,NW,325,0.0,0.0,94,0.01,,,0.06,VWS V14.01,2013-01-25 04:54:00,
2013-01-24 20:59:00,53.5,51.8,30.19,NW,325,0.0,0.0,94,0.01,,,0.06,VWS V14.01,2013-01-25 04:59:00,
2013-01-24 21:00:00,53.5,51.8,30.19,NW,325,0.0,0.0,94,0.01,,,0.06,VWS V14.01,2013-01-25 05:00:00,
2013-01-24 21:02:00,53.5,51.8,30.19,NW,325,0.0,0.0,94,0.01,,,0.06,VWS V14.01,2013-01-25 05:02:00,
2013-01-24 21:03:00,53.5,51.8,30.19,NW,325,0.0,0.0,94,0.00,,,0.06,VWS V14.01,2013-01-25 05:03:00,
2013-01-24 21:08:00,53.5,51.8,30.19,NW,325,0.0,0.0,94,0.00,,,0.06,VWS V14.01,2013-01-25 05:08:00,
2013-01-24 21:13:00,53.5,51.8,30.19,NW,325,0.0,0.0,94,0.00,,,0.06,VWS V14.01,2013-01-25 05:13:00,
2013-01-24 21:18:00,53.5,51.8,30.19,NW,325,0.0,0.0,94,0.00,,,0.06,VWS V14.01,2013-01-25 05:18:00,
2013-01-24 21:23:00,53.5,51.8,30.19,NW,325,0.0,1.0,94,0.00,,,0.06,VWS V14.01,2013-01-25 05:23:00,
2013-01-24 21:28:00,53.5,51.8,30.19,NW,325,0.0,1.0,94,0.00,,,0.06,VWS V14.01,2013-01-25 05:28:00,
2013-01-24 21:33:00,53.4,52.0,30.19,NW,325,0.0,1.0,95,0.00,,,0.06,VWS V14.01,2013-01-25 05:33:00,
2013-01-24 21:38:00,53.4,52.0,30.19,NW,325,0.0,1.0,95,0.00,,,0.06,VWS V14.01,2013-01-25 05:38:00,
2013-01-24 21:43:00,53.3,51.9,30.19,NW,325,0.0,1.0,95,0.00,,,0.06,VWS V14.01,2013-01-25 05:43:00,
2013-01-24 21:48:00,53.3,51.9,30.19,NW,325,0.0,1.0,95,0.00,,,0.06,VWS V14.01,2013-01-25 05:48:00,
2013-01-24 21:53:00,53.2,51.8,30.20,NW,325,0.0,1.0,95,0.00,,,0.06,VWS V14.01,2013-01-25 05:53:00,
2013-01-24 21:58:00,53.2,51.8,30.19,NW,325,0.0,1.0,95,0.00,,,0.06,VWS V14.01,2013-01-25 05:58:00,
2013-01-24 22:03:00,53.2,51.8,30.19,NW,325,0.0,0.0,95,0.00,,,0.06,VWS V14.01,2013-01-25 06:03:00,
2013-01-24 22:08:00,53.2,51.8,30.19,NW,325,0.0,0.0,95,0.00,,,0.06,VWS V14.01,2013-01-25 06:08:00,
2013-01-24 22:13:00,53.1,51.7,30.19,NW,325,0.0,0.0,95,0.00,,,0.06,VWS V14.01,2013-01-25 06:13:00,
2013-01-24 22:18:00,53.1,51.7,30.20,NW,325,0.0,0.0,95,0.00,,,0.06,VWS V14.01,2013-01-25 06:18:00,
2013-01-24 22:23:00,53.1,51.7,30.20,NW,325,0.0,0.0,95,0.00,,,0.06,VWS V14.01,2013-01-25 06:23:00,
2013-01-24 22:28:00,53.1,51.7,30.19,NW,325,0.0,0.0,95,0.00,,,0.06,VWS V14.01,2013-01-25 06:28:00,
2013-01-24 22:33:00,53.1,51.7,30.19,NW,325,0.0,0.0,95,0.00,,,0.06,VWS V14.01,2013-01-25 06:33:00,
2013-01-24 22:38:00,53.1,51.7,30.20,NW,325,0.0,1.0,95,0.00,,,0.06,VWS V14.01,2013-01-25 06:38:00,
2013-01-24 22:43:00,53.1,51.7,30.20,NW,325,0.0,1.0,95,0.00,,,0.06,VWS V14.01,2013-01-25 06:43:00,
2013-01-24 22:48:00,53.0,51.6,30.19,NW,325,0.0,1.0,95,0.00,,,0.06,VWS V14.01,2013-01-25 06:48:00,
2013-01-24 22:53:00,53.0,51.6,30.19,NW,325,0.0,1.0,95,0.00,,,0.06,VWS V14.01,2013-01-25 06:53:00,
2013-01-24 22:58:00,53.0,51.6,30.20,NW,325,0.0,1.0,95,0.00,,,0.06,VWS V14.01,2013-01-25 06:58:00,
2013-01-24 23:02:00,53.0,51.6,30.20,NW,325,0.0,0.0,95,0.00,,,0.06,VWS V14.01,2013-01-25 07:02:00,
2013-01-24 23:07:00,53.0,51.6,30.20,NW,325,0.0,0.0,95,0.00,,,0.06,VWS V14.01,2013-01-25 07:07:00,
2013-01-24 23:12:00,52.9,51.5,30.20,NW,325,0.0,0.0,95,0.00,,,0.06,VWS V14.01,2013-01-25 07:12:00,
2013-01-24 23:17:00,53.0,51.6,30.20,NW,325,0.0,0.0,95,0.00,,,0.06,VWS V14.01,2013-01-25 07:17:00,
2013-01-24 23:22:00,52.9,51.5,30.20,NW,325,0.0,0.0,95,0.00,,,0.06,VWS V14.01,2013-01-25 07:22:00,
2013-01-24 23:27:00,53.0,51.6,30.20,NW,325,0.0,0.0,95,0.00,,,0.06,VWS V14.01,2013-01-25 07:27:00,
2013-01-24 23:32:00,53.0,51.6,30.20,NW,325,0.0,0.0,95,0.00,,,0.06,VWS V14.01,2013-01-25 07:32:00,
2013-01-24 23:37:00,52.9,51.5,30.21,NW,325,0.0,0.0,95,0.00,,,0.06,VWS V14.01,2013-01-25 07:37:00,
2013-01-24 23:42:00,52.9,51.8,30.21,NW,325,0.0,0.0,96,0.00,,,0.06,VWS V14.01,2013-01-25 07:42:00,
2013-01-24 23:47:00,52.9,51.8,30.21,NW,325,0.0,0.0,96,0.00,,,0.06,VWS V14.01,2013-01-25 07:47:00,
2013-01-24 23:52:00,52.9,51.8,30.21,NW,325,0.0,0.0,96,0.00,,,0.06,VWS V14.01,2013-01-25 07:52:00,
2013-01-24 23:57:00,52.9,51.8,30.20,NW,325,0.0,0.0,96,0.00,,,0.06,VWS V14.01,2013-01-25 07:57:00,